Temperature
18 16 16 17 17 18 18 18 17 18 18 17 16 16 16 17 17 17 17 18 18 19 19 19 19 19 19 18 18 18 18 18 17 17 17 16 16 16 16 15 15 15 15 15
17 17 18 18 18 18 18 17 17 17 18 17 16 16 16 16 16 17 17 17 18 18 19 19 19 19 19 19 18 18 18 18 17 17 17 16 16 16 15 15 15 15 15 15
18 18 19 19 19 18 18 17 17 17 17 17 17 17 16 16 16 16 17 17 18 18 19 19 19 19 19 18 18 18 18 17 17 17 17 16 16 16 16 15 15 15 15 15
18 19 19 19 19 18 18 18 18 18 17 16 17 17 17 16 16 16 16 17 17 18 18 19 19 19 18 18 18 18 18 17 17 17 16 16 16 16 15 15 15 15 15 15
18 19 19 19 19 19 18 18 18 18 17 16 16 16 16 16 16 15 16 16 17 18 18 18 18 18 18 18 18 18 17 17 17 17 16 16 16 15 15 15 15 15 15 15
19 19 20 19 19 19 18 18 17 16 16 17 17 16 16 15 16 16 15 16 17 17 18 18 18 18 18 18 18 17 17 17 17 16 16 16 15 15 15 15 15 15 15 14
19 19 19 19 18 19 18 17 17 17 16 16 16 16 16 16 16 16 16 16 17 17 18 18 18 18 18 18 17 17 17 17 17 16 16 16 15 15 15 15 15 15 14 14
18 18 19 19 19 18 17 17 17 17 16 16 16 16 16 16 16 17 17 17 17 17 17 18 18 18 17 17 17 17 17 17 16 16 16 15 15 15 15 15 14 14 14 14
18 19 20 20 19 18 17 17 16 16 16 16 16 16 16 15 15 15 16 16 16 17 17 17 17 17 17 17 17 17 17 16 16 16 15 15 15 15 15 14 14 14 14 14
18 19 20 20 19 18 18 16 15 16 16 16 17 17 16 16 15 14 14 15 16 17 17 17 17 17 17 17 17 16 16 16 16 15 15 15 15 14 14 14 14 14 14 14
18 19 19 20 20 19 17 17 15 14 15 16 16 17 17 16 15 15 15 16 16 17 17 17 17 17 17 16 16 16 16 16 15 15 15 15 14 14 14 14 14 13 13 13
17 16 17 19 19 19 19 17 16 17 16 15 15 16 17 16 16 16 15 16 17 17 17 17 17 16 16 16 16 16 16 15 15 15 15 14 14 14 14 14 13 13 13 13
17 17 18 19 19 19 19 18 17 15 14 14 15 17 16 15 15 16 16 16 17 17 17 16 16 16 16 16 16 15 15 15 15 14 14 14 14 13 13 13 13 13 13 13
17 16 17 18 18 19 19 18 16 16 15 15 15 17 17 16 15 15 16 16 17 17 16 16 16 16 16 16 15 15 15 15 14 14 14 14 13 13 13 13 12 12 12 12
17 17 18 18 19 19 19 19 17 17 16 16 17 16 17 16 15 16 16 16 16 16 16 16 16 16 16 15 15 15 15 14 14 14 14 13 13 13 12 12 12 12 12 12
16 18 18 19 19 19 19 19 18 17 17 17 17 17 17 17 17 16 15 16 16 16 16 16 16 16 16 15 15 15 14 14 14 13 13 13 13 12 12 12 12 11 11 11
15 16 17 17 18 19 19 19 18 18 17 17 17 18 16 15 15 16 16 16 17 17 17 17 16 16 16 15 15 15 14 14 13 13 13 13 12 12 12 12 11 11 11 11
15 15 14 16 18 19 18 18 18 18 18 17 17 17 16 17 17 18 18 18 18 18 17 17 17 16 16 15 15 14 14 13 13 13 13 12 12 12 11 11 11 11 11 10
14 14 14 14 16 17 18 18 18 18 18 17 16 16 16 16 16 16 18 18 19 18 18 17 17 16 16 15 15 14 14 13 13 13 12 12 12 11 11 11 11 10 10 10
13 13 14 14 17 17 18 19 19 19 19 18 17 16 15 15 14 16 19 19 18 18 17 17 16 16 15 15 14 14 13 13 13 12 12 12 11 11 11 10 10 10 10 10
15 14 14 14 15 16 16 17 18 19 18 19 18 17 16 16 18 19 19 19 18 18 17 17 16 16 15 15 14 14 13 13 13 12 12 11 11 11 10 10 10 10 9 9
14 13 13 13 15 16 17 17 17 18 19 19 19 19 18 19 19 19 19 19 18 18 17 16 16 15 15 14 14 13 13 13 12 12 11 11 10 10 10 10 10 9 9 9
13 14 13 14 15 16 17 18 19 19 19 20 20 20 19 19 19 19 18 18 18 17 17 16 15 15 14 14 13 13 13 12 12 11 11 11 10 10 10 10 9 9 9 8
13 12 12 12 13 15 17 18 19 19 20 20 20 20 19 19 18 18 18 18 17 17 16 16 15 15 14 14 13 13 12 12 11 11 11 10 10 10 9 9 9 9 8 8
13 12 12 13 13 15 18 18 19 19 19 19 19 19 19 18 18 18 18 17 17 16 16 15 15 14 14 13 13 12 12 11 11 11 10 10 10 10 9 9 9 8 8 8
11 12 13 14 15 14 17 18 18 18 18 19 19 18 18 18 18 17 17 17 16 16 15 15 14 14 14 13 13 12 12 11 11 11 10 10 10 9 9 9 8 8 8 8
Wind_Speed
4 5 3 3 3 4 5 5 4 1 1 4 4 2 2 2 3 2 1 2 2 2 0 2 3 3 4 3 3 3 3 2 3 2 2 2 2 2 3 4 5 6 6 6
5 1 2 5 4 4 6 6 4 3 3 4 4 3 2 2 1 2 3 3 3 2 2 2 3 3 3 2 2 2 2 2 2 1 1 1 1 1 1 3 5 6 6 6
3 2 4 6 4 4 3 5 5 5 3 4 3 4 3 1 1 1 2 3 3 4 3 2 2 2 2 2 1 2 2 2 2 2 2 3 3 3 3 4 4 5 7 6
1 2 4 5 3 4 2 3 6 6 5 2 2 0 3 1 1 1 1 2 3 3 3 3 3 2 1 0 1 2 2 2 2 3 3 2 2 1 2 2 3 5 6 6
1 2 5 5 3 5 3 5 6 5 5 3 2 2 5 0 3 5 4 4 3 3 4 4 3 3 2 1 2 3 3 3 3 3 3 3 2 1 2 2 4 5 5 6
1 1 2 4 3 5 7 7 7 6 5 1 2 3 5 5 7 6 5 5 5 4 4 4 3 3 3 3 3 3 4 3 3 3 3 2 2 2 2 3 4 4 4 4
3 2 1 4 5 4 6 6 3 4 3 4 2 3 7 6 6 7 9 8 6 5 5 4 4 3 3 3 3 3 4 3 2 3 3 2 1 1 1 2 3 3 3 3
2 2 2 2 5 6 5 7 7 5 4 3 1 5 6 3 3 4 6 6 6 5 5 5 5 4 3 3 3 3 3 2 2 2 2 2 2 1 1 2 2 2 2 3
5 3 2 2 4 9 6 4 6 6 3 1 4 5 6 1 3 5 6 7 7 6 6 5 5 4 4 3 3 3 3 2 1 1 1 2 2 2 2 2 2 3 3 3
6 3 1 2 5 4 5 8 6 5 4 3 4 4 5 6 8 8 8 9 8 6 6 6 5 4 3 3 2 3 3 2 1 1 1 2 1 2 2 2 3 4 4 4
4 4 1 2 5 7 5 4 5 5 5 5 3 7 6 9 11 13 13 11 10 9 8 7 5 4 4 3 3 3 3 2 2 2 1 2 2 2 2 3 3 4 4 5
4 4 2 5 3 5 6 7 8 5 4 4 3 7 4 6 8 11 11 10 9 9 8 7 6 5 4 4 3 3 3 2 1 1 2 2 2 3 3 3 4 4 4 4
6 5 3 4 4 0 3 5 5 6 5 5 5 7 3 1 5 8 10 10 9 8 7 6 6 5 5 4 3 3 2 2 1 2 2 2 3 3 3 3 3 4 4 4
5 4 6 8 7 5 5 5 6 6 5 6 8 9 6 4 7 8 9 10 10 9 8 7 6 6 5 5 4 3 2 2 2 2 2 2 1 1 2 2 3 3 3 4
5 4 5 6 5 4 5 7 8 8 9 9 9 9 11 10 11 10 10 10 10 10 9 9 8 7 6 5 4 4 3 2 2 2 2 0 1 1 2 2 3 3 4 4
3 3 2 2 2 3 5 7 9 9 7 8 6 9 9 5 6 8 11 13 13 12 11 10 9 8 8 7 6 5 4 3 3 3 1 0 1 2 2 2 3 3 4 4
3 5 3 3 4 2 6 8 9 7 8 9 10 11 5 6 11 14 14 15 14 14 12 12 11 10 9 8 7 6 5 3 3 3 2 1 0 1 1 2 2 3 3 3
7 6 4 1 2 5 9 4 6 7 7 9 8 7 8 9 8 7 10 14 14 13 12 12 10 9 7 6 6 5 5 4 4 3 2 1 1 0 1 2 2 3 2 3
5 7 5 4 3 7 9 4 5 6 6 7 8 6 4 5 4 2 8 12 13 12 11 10 10 9 7 7 7 6 5 4 3 3 3 2 2 1 1 2 3 2 2 3
5 5 6 5 4 6 8 4 2 4 5 5 7 7 8 9 4 6 7 10 9 9 8 8 8 7 7 7 7 7 6 5 5 5 4 3 2 2 2 3 3 2 2 3
3 3 5 6 6 8 8 3 4 4 8 4 7 9 12 10 7 4 7 8 9 9 9 9 9 8 8 7 8 7 6 6 6 4 3 3 3 3 3 2 2 2 2 3
7 6 6 6 5 9 4 5 7 8 3 3 5 8 9 7 3 4 7 8 9 9 8 9 9 8 6 7 8 7 7 6 5 4 3 3 3 3 2 2 2 2 2 3
7 8 7 8 8 5 3 6 4 2 2 3 4 5 8 5 4 5 5 7 8 9 9 8 8 8 6 7 8 8 7 6 5 4 4 4 3 3 2 2 3 3 2 3
4 3 4 4 7 6 5 4 3 2 3 2 3 5 7 6 5 6 6 7 7 7 8 7 8 8 7 6 7 7 6 6 6 5 5 4 4 3 3 3 3 3 3 4
5 6 3 5 6 5 5 4 2 1 0 1 2 3 5 6 5 6 7 7 7 7 7 8 9 9 8 7 7 6 6 6 6 5 5 4 4 4 4 4 4 5 5 6
5 6 6 7 7 5 5 4 1 1 1 2 3 2 2 5 6 6 6 6 7 7 7 7 7 7 7 7 7 6 6 7 7 5 5 4 4 4 4 4 5 7 8 11
Wind_Direction
37 73 114 170 162 152 132 117 103 65 59 89 93 73 6 49 114 123 139 157 161 185 338 81 96 102 106 94 98 103 102 89 84 70 70 60 27 358 356 0 3 6 8 9
48 50 192 142 144 116 112 107 101 68 62 106 96 50 3 47 172 176 175 181 179 149 71 67 82 86 93 103 117 122 121 108 97 88 105 108 98 343 327 341 357 3 360 360
143 224 155 132 129 116 116 152 154 140 76 51 91 13 349 340 45 93 144 172 173 166 157 137 109 92 89 86 132 144 137 118 104 97 81 57 40 19 10 0 352 347 346 345
214 233 145 130 153 146 171 175 142 129 105 20 81 172 289 278 310 268 209 168 179 174 155 148 133 119 128 134 91 96 106 96 84 93 89 88 83 25 317 320 325 333 349 348
242 170 147 155 188 155 150 107 104 105 107 66 33 120 282 272 233 236 222 197 186 175 163 159 160 163 136 101 98 95 93 76 63 75 86 88 69 353 328 337 341 342 342 347
256 223 157 152 108 123 121 81 64 53 67 20 241 157 266 226 214 211 206 196 183 167 151 143 137 119 97 88 90 92 93 70 58 69 70 79 66 16 5 350 344 341 337 336
26 6 23 118 94 66 96 101 61 22 12 258 226 188 247 242 214 193 190 188 177 163 150 143 137 128 120 113 105 99 99 75 59 66 57 52 48 45 20 345 339 342 341 332
115 286 233 166 151 157 160 140 153 176 208 267 276 233 254 265 216 171 161 161 157 156 156 158 158 152 146 136 119 111 109 93 65 65 43 34 37 45 15 360 348 331 317 308
165 234 271 169 137 135 139 160 156 130 140 211 271 280 299 133 150 154 153 158 171 169 163 160 154 151 152 148 146 142 131 109 63 54 50 29 22 27 13 356 353 339 329 330
157 181 250 144 98 57 143 144 112 124 152 231 283 268 244 219 205 189 181 183 183 174 167 163 160 159 155 151 142 124 129 136 128 72 66 58 18 8 11 16 0 348 342 343
147 150 337 118 177 176 127 121 116 120 150 158 246 269 227 211 199 192 193 188 182 180 178 173 168 165 155 137 125 118 114 110 92 73 61 44 19 16 24 16 357 350 348 352
149 126 197 246 247 176 168 168 151 155 201 177 187 266 281 221 202 190 188 184 181 179 176 170 163 156 149 144 137 126 124 122 126 103 78 53 31 33 28 6 350 350 351 349
142 123 85 355 347 151 174 170 161 133 125 157 178 261 307 238 188 185 179 177 175 171 167 162 159 163 166 166 159 144 137 140 127 98 80 56 36 29 12 355 350 353 353 352
124 131 169 197 216 200 202 185 162 143 163 197 217 244 272 234 201 192 183 176 171 172 172 171 174 178 178 176 168 159 157 154 133 105 88 63 11 347 340 347 354 351 352 354
122 176 215 233 232 202 213 206 185 191 195 197 225 226 241 222 206 194 179 169 168 175 180 181 181 182 179 177 175 169 170 167 143 120 106 55 323 345 357 358 353 352 355 353
115 162 172 286 247 224 237 232 205 212 208 215 235 252 244 203 164 172 177 177 182 188 188 185 182 180 183 184 181 176 180 179 154 148 167 191 32 19 3 351 352 357 352 347
140 138 129 268 309 6 266 233 204 207 204 187 214 235 196 178 190 192 187 186 191 191 188 186 186 187 188 188 181 180 183 168 158 163 169 163 103 20 342 345 0 349 340 345
144 132 138 175 39 246 246 249 202 209 229 213 224 226 195 200 196 192 186 188 193 190 187 188 186 185 184 180 174 167 160 161 163 168 180 196 183 298 333 349 335 322 318 326
152 140 131 141 215 275 292 265 182 187 253 219 214 218 174 131 101 242 203 193 195 190 186 185 182 176 170 171 169 156 158 163 167 184 199 210 200 216 281 305 301 298 305 313
74 115 128 143 180 241 254 258 191 136 274 240 190 183 154 133 157 239 202 186 183 173 168 165 160 155 163 172 160 157 169 174 194 203 206 209 207 212 237 259 275 281 285 293
108 109 151 170 209 257 255 255 131 165 242 227 181 175 165 180 201 203 163 171 169 162 160 157 157 165 176 170 162 169 179 199 206 196 193 206 217 224 230 244 260 272 291 310
177 168 182 158 192 250 243 153 180 218 243 188 178 175 178 189 167 144 156 160 158 157 157 159 163 171 171 167 166 177 199 207 191 182 191 211 225 239 237 234 273 281 289 305
196 191 187 190 212 250 235 223 247 204 216 215 180 179 169 168 173 164 160 162 164 165 165 164 166 167 173 178 177 188 207 194 179 182 201 218 226 238 233 232 256 279 280 284
249 169 166 240 266 267 268 271 275 225 223 224 184 168 162 169 172 166 165 166 168 170 169 165 162 171 187 195 197 201 199 185 178 192 209 217 221 239 249 250 245 249 261 270
224 169 186 248 273 301 301 269 261 281 90 106 113 153 165 160 172 175 175 177 177 175 173 171 177 186 198 198 206 208 195 179 186 200 211 220 225 231 244 252 248 246 247 244
203 183 186 228 230 208 253 271 245 185 207 180 138 119 143 162 174 172 179 183 177 177 173 177 185 193 200 199 209 212 199 186 187 203 217 222 228 235 239 255 280 266 258 273
Height
1511 1517 1522 1522 1521 1523 1527 1532 1536 1536 1532 1535 1540 1541 1539 1538 1538 1540 1541 1542 1543 1544 1546 1548 1549 1551 1552 1554 1554 1555 1555 1555 1555 1555 1554 1554 1553 1553 1552 1551 1549 1548 1546 1545
1518 1521 1518 1518 1520 1523 1527 1534 1537 1537 1534 1537 1541 1543 1540 1540 1539 1540 1541 1542 1543 1545 1546 1548 1549 1551 1552 1553 1554 1555 1555 1555 1555 1555 1554 1554 1554 1553 1552 1551 1550 1548 1547 1545
1520 1519 1516 1518 1522 1526 1529 1533 1536 1538 1537 1538 1541 1545 1543 1541 1540 1540 1540 1541 1543 1544 1545 1547 1549 1550 1552 1553 1554 1554 1555 1555 1555 1555 1555 1554 1554 1553 1552 1551 1550 1548 1547 1545
1518 1515 1516 1520 1523 1525 1532 1527 1530 1535 1543 1550 1546 1556 1545 1542 1541 1540 1540 1540 1542 1543 1545 1546 1548 1550 1551 1552 1554 1554 1555 1555 1555 1555 1554 1554 1553 1552 1551 1550 1549 1548 1547 1545
1518 1516 1517 1522 1522 1522 1528 1526 1530 1536 1543 1551 1550 1556 1551 1543 1543 1540 1539 1539 1540 1542 1544 1545 1547 1549 1551 1552 1553 1554 1554 1554 1554 1554 1554 1553 1553 1552 1551 1550 1549 1547 1546 1545
1516 1515 1515 1518 1519 1521 1525 1530 1535 1541 1547 1558 1552 1556 1552 1545 1538 1536 1536 1538 1539 1541 1543 1545 1547 1549 1550 1552 1553 1553 1554 1554 1554 1554 1553 1553 1552 1551 1550 1549 1548 1547 1545 1544
1520 1517 1515 1516 1522 1525 1527 1540 1555 1559 1564 1562 1550 1552 1548 1533 1531 1531 1533 1535 1537 1540 1542 1544 1546 1548 1549 1551 1552 1553 1553 1553 1553 1553 1553 1552 1551 1551 1550 1548 1547 1546 1544 1543
1528 1529 1518 1516 1520 1526 1530 1536 1554 1565 1566 1561 1552 1553 1539 1529 1528 1529 1531 1534 1536 1539 1541 1543 1545 1547 1549 1550 1551 1552 1552 1552 1552 1552 1552 1551 1551 1550 1549 1548 1546 1545 1543 1542
1527 1527 1515 1514 1516 1521 1531 1536 1537 1551 1556 1561 1556 1546 1534 1528 1528 1529 1531 1533 1535 1537 1540 1542 1544 1546 1548 1549 1550 1551 1551 1551 1552 1551 1551 1551 1550 1549 1548 1547 1546 1544 1543 1541
1517 1523 1516 1515 1516 1521 1524 1530 1542 1550 1561 1564 1554 1548 1541 1530 1529 1528 1529 1530 1533 1536 1538 1540 1543 1545 1546 1548 1549 1550 1550 1550 1551 1550 1550 1549 1549 1548 1547 1546 1545 1543 1541 1540
1513 1522 1521 1518 1519 1523 1527 1532 1538 1547 1550 1560 1561 1548 1522 1520 1520 1522 1524 1527 1530 1533 1536 1539 1541 1543 1545 1546 1548 1548 1549 1549 1549 1549 1549 1548 1548 1547 1546 1545 1543 1542 1540 1538
1513 1523 1528 1521 1514 1513 1517 1524 1532 1543 1548 1551 1555 1544 1514 1514 1515 1517 1521 1524 1528 1531 1534 1537 1540 1542 1544 1545 1546 1547 1547 1548 1548 1548 1548 1547 1546 1545 1544 1543 1542 1540 1539 1537
1512 1522 1532 1530 1526 1518 1518 1520 1524 1532 1543 1552 1553 1538 1514 1513 1513 1515 1518 1521 1525 1529 1532 1535 1538 1540 1542 1543 1544 1545 1546 1546 1547 1547 1546 1546 1545 1544 1543 1542 1541 1539 1537 1535
1508 1518 1526 1531 1525 1517 1518 1518 1522 1528 1540 1545 1540 1528 1516 1513 1513 1513 1515 1518 1522 1526 1530 1533 1535 1538 1540 1541 1543 1544 1544 1545 1545 1545 1545 1544 1543 1543 1542 1541 1539 1537 1536 1534
1507 1516 1515 1514 1511 1512 1512 1513 1518 1521 1523 1529 1523 1521 1510 1507 1507 1509 1512 1516 1520 1523 1527 1529 1532 1535 1537 1539 1541 1542 1543 1543 1543 1543 1543 1543 1542 1541 1540 1539 1537 1535 1534 1532
1507 1513 1513 1512 1509 1510 1511 1509 1511 1513 1514 1516 1514 1512 1501 1502 1505 1507 1510 1513 1516 1519 1522 1526 1529 1532 1534 1536 1538 1539 1540 1541 1541 1541 1541 1541 1540 1539 1538 1536 1535 1533 1531 1529
1509 1513 1518 1521 1514 1510 1515 1504 1504 1505 1504 1507 1510 1502 1498 1501 1501 1502 1505 1508 1511 1514 1518 1522 1525 1529 1531 1534 1535 1537 1538 1538 1539 1539 1538 1538 1537 1536 1535 1534 1533 1531 1529 1527
1508 1514 1521 1523 1517 1523 1507 1494 1494 1497 1496 1496 1495 1493 1494 1494 1496 1499 1501 1504 1507 1511 1515 1519 1522 1526 1529 1531 1533 1534 1535 1536 1536 1536 1536 1535 1535 1534 1533 1531 1530 1528 1526 1524
1502 1510 1522 1527 1525 1518 1503 1492 1493 1496 1495 1489 1490 1490 1492 1494 1497 1498 1499 1501 1504 1507 1511 1515 1519 1522 1526 1528 1530 1531 1532 1533 1533 1533 1533 1533 1532 1531 1530 1528 1527 1525 1523 1521
1504 1506 1518 1526 1522 1522 1502 1489 1488 1492 1495 1485 1485 1487 1490 1493 1500 1496 1495 1498 1502 1506 1509 1513 1517 1520 1523 1525 1527 1528 1529 1529 1530 1530 1530 1530 1529 1528 1527 1526 1524 1523 1521 1519
1508 1512 1517 1521 1520 1511 1492 1487 1489 1501 1494 1482 1482 1483 1486 1488 1490 1490 1493 1496 1499 1503 1507 1510 1513 1516 1519 1521 1523 1524 1525 1526 1527 1527 1527 1526 1526 1525 1524 1523 1521 1519 1517 1515
1505 1511 1515 1518 1519 1510 1486 1486 1489 1486 1480 1479 1480 1481 1484 1485 1487 1489 1491 1494 1497 1500 1503 1507 1510 1512 1515 1518 1519 1520 1521 1523 1523 1523 1523 1523 1523 1522 1521 1519 1518 1516 1514 1512
1499 1498 1500 1501 1497 1486 1483 1482 1481 1480 1480 1479 1479 1481 1483 1484 1486 1488 1490 1493 1495 1498 1501 1503 1506 1509 1512 1514 1515 1517 1518 1519 1519 1520 1520 1519 1519 1518 1517 1516 1514 1512 1510 1508
1492 1491 1494 1494 1486 1481 1480 1479 1479 1479 1479 1479 1479 1480 1481 1483 1485 1487 1489 1491 1493 1495 1498 1500 1503 1506 1508 1510 1512 1513 1515 1515 1516 1516 1516 1515 1515 1514 1513 1512 1510 1508 1506 1504
1487 1489 1490 1489 1483 1479 1477 1477 1478 1478 1478 1478 1478 1479 1480 1482 1483 1485 1486 1488 1490 1493 1495 1498 1500 1502 1504 1506 1508 1509 1511 1511 1511 1512 1512 1511 1511 1510 1509 1507 1506 1504 1502 1501
1483 1484 1486 1484 1478 1478 1476 1476 1476 1476 1476 1477 1477 1478 1479 1480 1481 1483 1484 1486 1488 1490 1492 1494 1496 1498 1501 1502 1504 1505 1506 1507 1507 1507 1507 1507 1506 1505 1504 1502 1501 1499 1498 1496